Temp
11 11 11 10 11 11 11 11 11 11 11 12 12 13 13 14 14 14 13 14 13 13 13 13 13 13 13 13 13 13 13 12 12 11 11 11 11 11
11 11 10 10 10 10 10 10 11 11 10 11 12 12 13 13 14 14 14 13 12 12 13 13 12 13 13 13 13 12 12 12 11 11 11 11 11 11
10 10 10 10 10 10 10 10 10 10 10 10 10 12 13 12 13 13 14 14 13 12 13 13 12 13 12 13 13 12 12 12 11 11 11 10 11 10
10 10 10 10 10 10 10 10 10 10 10 10 10 10 11 10 11 11 13 13 12 13 13 13 12 11 11 12 12 12 12 12 11 11 10 10 11 11
9 10 10 10 10 10 11 10 10 10 10 10 10 10 10 10 10 10 11 11 12 12 12 12 12 12 12 12 12 11 11 12 11 10 10 10 10 11
9 9 10 10 10 10 10 11 10 10 10 10 10 10 10 11 10 10 10 10 11 11 12 12 12 13 12 11 11 11 11 12 10 10 10 10 10 10
9 9 9 10 10 10 10 9 9 9 9 9 10 9 10 10 10 10 10 11 10 10 12 11 12 12 11 11 11 11 11 11 11 9 9 10 9 10
9 9 9 9 9 9 10 9 10 9 9 9 10 9 9 10 10 10 10 10 8 10 10 11 11 11 11 11 11 11 11 10 10 9 9 9 8 9
8 8 9 9 9 9 9 10 9 9 9 9 9 9 9 10 10 9 9 10 10 9 8 10 11 10 11 11 11 11 11 11 10 9 9 8 8 8
8 8 8 9 9 9 9 9 9 9 9 9 9 9 9 10 9 10 10 10 10 9 9 9 9 9 11 10 10 10 11 10 10 9 9 8 8 7
8 8 8 8 9 9 9 9 9 9 9 9 9 9 9 9 9 8 8 9 9 9 9 9 8 9 9 10 10 9 10 9 9 9 8 8 7 7
6 7 8 6 7 8 8 8 8 8 8 8 8 8 8 8 8 8 7 7 6 6 7 7 8 7 7 9 9 9 10 10 9 8 8 7 5 5
5 5 5 6 6 6 7 7 7 7 7 7 7 7 7 7 7 6 5 5 4 4 4 5 5 5 6 7 7 8 8 8 8 7 6 5 4 4
4 4 4 4 4 6 6 6 6 6 6 6 6 6 6 6 6 6 5 4 3 2 2 2 1 1 3 4 4 5 6 7 6 5 5 2 2 3
4 3 3 3 4 4 4 4 4 4 4 4 4 4 4 4 4 4 4 4 4 4 3 1 0 0 -0 -1 0 2 3 4 4 3 1 1 1 1
2 2 2 3 3 3 3 3 3 2 2 1 1 1 1 1 2 2 2 2 2 3 3 2 -0 -1 -1 -0 -0 -0 -0 1 2 1 0 1 1 1
1 1 2 2 2 2 2 2 2 2 1 0 -1 -3 -3 -3 -3 -4 -4 -4 -5 -5 -4 -3 -3 -3 -3 -2 -2 -1 -1 0 0 0 -0 -0 -0 -0
0 1 1 1 0 -1 -1 -2 -2 -2 -2 -1 -1 -1 -1 -1 -2 -2 -6 -6 -5 -5 -4 -3 -4 -4 -4 -3 -3 -2 -2 -2 -1 -0 -1 -1 -1 -1
-1 -2 -2 -3 -3 -3 -2 -1 -0 -1 -1 -2 -2 -2 -3 -3 -5 -7 -7 -6 -5 -5 -4 -4 -4 -5 -5 -5 -4 -3 -3 -2 -2 -2 -2 -1 -1 -1
-4 -4 -4 -4 -3 -2 -2 -2 -2 -2 -2 -3 -4 -4 -5 -7 -8 -7 -7 -7 -7 -6 -5 -4 -4 -5 -5 -5 -4 -4 -3 -3 -2 -2 -3 -2 -1 -1
-4 -4 -4 -3 -3 -3 -3 -4 -4 -4 -5 -5 -5 -6 -6 -8 -7 -7 -7 -7 -7 -6 -6 -5 -5 -5 -5 -6 -5 -4 -4 -4 -3 -2 -3 -3 -3 -3
-5 -5 -4 -4 -4 -4 -5 -5 -6 -6 -6 -6 -6 -6 -6 -7 -7 -7 -7 -7 -7 -6 -5 -6 -5 -5 -6 -6 -6 -5 -5 -5 -5 -5 -4 -4 -4 -5
-5 -5 -6 -6 -6 -6 -7 -7 -7 -7 -8 -7 -6 -5 -6 -6 -7 -7 -7 -6 -6 -6 -6 -6 -5 -5 -6 -7 -6 -5 -6 -7 -7 -8 -8 -7 -6 -3
Height
1465 1468 1471 1473 1477 1482 1485 1487 1489 1489 1490 1490 1492 1493 1495 1498 1499 1500 1502 1506 1508 1510 1511 1512 1513 1512 1513 1513 1512 1513 1512 1513 1513 1512 1511 1509 1508 1507
1456 1460 1463 1466 1468 1471 1473 1479 1480 1482 1482 1482 1484 1488 1490 1491 1491 1494 1495 1496 1499 1501 1503 1504 1505 1505 1506 1507 1506 1507 1506 1507 1507 1507 1506 1504 1502 1501
1448 1451 1455 1459 1461 1464 1466 1468 1471 1473 1472 1477 1478 1480 1481 1482 1482 1485 1489 1490 1491 1493 1495 1496 1497 1497 1498 1498 1499 1499 1499 1500 1501 1501 1500 1498 1497 1496
1441 1444 1446 1451 1451 1456 1455 1458 1459 1463 1466 1468 1468 1470 1472 1473 1473 1478 1480 1482 1485 1487 1488 1488 1489 1488 1489 1490 1491 1491 1491 1491 1492 1493 1493 1492 1490 1490
1434 1435 1438 1440 1444 1447 1449 1451 1452 1454 1457 1459 1460 1461 1461 1464 1466 1469 1470 1473 1475 1478 1480 1479 1479 1479 1480 1481 1482 1483 1483 1484 1484 1484 1484 1483 1484 1483
1427 1428 1430 1431 1434 1437 1440 1442 1445 1447 1448 1449 1450 1451 1452 1453 1456 1457 1458 1462 1464 1468 1469 1469 1469 1469 1470 1473 1473 1473 1474 1474 1475 1475 1475 1475 1475 1475
1419 1421 1421 1422 1425 1429 1432 1433 1436 1438 1440 1441 1441 1443 1440 1442 1444 1447 1447 1448 1449 1454 1455 1453 1455 1457 1459 1461 1462 1463 1464 1464 1465 1466 1467 1466 1466 1467
1413 1416 1417 1417 1417 1419 1422 1426 1428 1430 1431 1432 1433 1432 1433 1433 1437 1437 1438 1438 1436 1440 1439 1436 1443 1443 1447 1448 1450 1452 1452 1453 1453 1455 1456 1456 1457 1458
1406 1408 1410 1411 1411 1413 1414 1415 1418 1419 1421 1423 1423 1424 1425 1426 1428 1427 1425 1423 1422 1424 1428 1426 1430 1429 1434 1433 1436 1437 1438 1439 1440 1442 1444 1444 1446 1449
1397 1399 1402 1402 1402 1404 1406 1407 1409 1411 1415 1415 1415 1416 1416 1418 1417 1414 1414 1413 1414 1414 1416 1411 1414 1412 1417 1417 1418 1421 1423 1424 1426 1427 1430 1432 1433 1436
1389 1394 1396 1395 1396 1396 1397 1397 1400 1401 1403 1405 1405 1407 1407 1407 1406 1407 1407 1406 1401 1400 1402 1401 1401 1399 1398 1399 1402 1404 1407 1408 1410 1413 1415 1418 1419 1423
1384 1387 1387 1390 1389 1391 1391 1391 1394 1395 1397 1397 1399 1399 1400 1400 1400 1400 1399 1399 1398 1395 1395 1394 1391 1390 1383 1382 1386 1388 1389 1391 1394 1396 1399 1403 1407 1410
1381 1384 1385 1386 1387 1387 1388 1389 1390 1391 1391 1392 1392 1393 1393 1393 1393 1393 1393 1391 1389 1386 1387 1386 1382 1379 1375 1373 1371 1372 1374 1375 1376 1379 1383 1386 1391 1396
1381 1382 1383 1384 1386 1386 1387 1386 1386 1387 1387 1387 1387 1386 1385 1385 1385 1384 1384 1382 1382 1379 1378 1377 1373 1372 1370 1365 1362 1360 1360 1362 1362 1363 1365 1373 1379 1382
1382 1382 1384 1385 1385 1385 1384 1384 1383 1382 1382 1381 1380 1380 1380 1379 1378 1377 1375 1373 1371 1370 1369 1368 1365 1362 1359 1357 1355 1352 1352 1351 1353 1351 1355 1360 1366 1371
1383 1384 1385 1385 1384 1383 1381 1380 1379 1379 1378 1377 1376 1375 1373 1371 1370 1368 1364 1362 1357 1356 1357 1354 1353 1352 1347 1344 1344 1342 1340 1341 1340 1344 1345 1350 1356 1365
1385 1385 1384 1383 1382 1381 1379 1378 1377 1375 1374 1373 1371 1368 1365 1362 1360 1359 1357 1354 1351 1347 1344 1343 1342 1339 1336 1334 1331 1329 1328 1326 1330 1333 1335 1341 1347 1355
1386 1384 1383 1381 1379 1378 1377 1375 1373 1372 1370 1369 1367 1365 1364 1361 1357 1354 1352 1350 1345 1340 1337 1334 1332 1329 1325 1320 1321 1316 1316 1318 1317 1319 1327 1331 1339 1347
1385 1384 1383 1381 1380 1378 1377 1374 1373 1373 1373 1372 1369 1366 1363 1359 1354 1350 1347 1344 1339 1336 1333 1329 1325 1323 1320 1315 1314 1309 1307 1306 1310 1310 1318 1325 1332 1339
1385 1384 1383 1381 1379 1379 1378 1377 1376 1374 1372 1370 1367 1364 1360 1355 1350 1345 1342 1338 1334 1329 1324 1321 1318 1316 1313 1310 1307 1305 1302 1303 1305 1304 1311 1321 1331 1339
1385 1385 1384 1382 1381 1380 1379 1378 1376 1374 1371 1368 1364 1360 1354 1348 1343 1338 1334 1332 1328 1323 1317 1313 1311 1309 1306 1304 1303 1300 1300 1301 1306 1306 1308 1319 1324 1332
1385 1384 1383 1382 1381 1379 1379 1378 1376 1372 1368 1364 1359 1354 1348 1342 1336 1331 1327 1322 1319 1316 1311 1307 1304 1301 1301 1299 1299 1298 1299 1301 1305 1306 1312 1318 1321 1327
1385 1385 1384 1383 1381 1379 1378 1376 1372 1369 1365 1360 1355 1348 1342 1336 1331 1325 1322 1317 1313 1309 1306 1303 1300 1298 1297 1298 1298 1298 1298 1300 1302 1309 1316 1321 1328 1335
Wind_Speed
39 39 42 42 42 42 44 40 39 31 34 36 38 35 35 33 32 34 39 37 35 33 33 33 30 30 28 25 25 25 23 23 22 20 21 19 20 21
40 38 40 42 39 37 38 40 42 44 37 33 45 46 39 34 27 29 32 33 36 36 35 35 34 33 31 29 28 28 25 25 25 23 21 20 19 20
36 39 41 42 41 40 43 40 41 40 44 43 36 36 34 30 26 25 25 29 29 31 34 36 36 36 33 33 31 30 28 27 27 26 24 20 20 20
32 35 40 41 36 37 39 41 44 41 44 42 39 37 35 32 34 32 28 31 27 28 30 35 39 38 35 35 35 32 30 30 30 29 25 21 20 21
34 34 33 33 39 43 39 35 43 42 42 45 41 45 47 46 43 44 44 36 36 36 37 37 40 38 34 36 39 36 30 34 35 32 29 23 21 21
32 32 32 32 34 33 39 40 37 38 41 46 49 46 48 42 42 44 41 44 48 43 43 43 42 43 40 40 41 38 37 41 38 36 33 26 23 21
30 32 34 34 34 33 34 33 35 36 41 43 42 41 40 41 42 44 49 51 56 54 50 49 48 44 41 41 42 41 44 45 42 38 35 32 25 25
33 34 35 32 33 34 33 31 31 34 38 40 41 38 40 42 44 42 48 52 53 55 57 61 52 48 47 48 49 48 49 48 45 41 38 34 31 29
29 30 27 30 35 38 39 36 34 37 33 35 39 41 41 40 41 45 49 50 56 51 41 51 51 53 52 55 54 54 51 47 48 46 42 37 36 32
31 31 29 29 34 34 33 36 37 36 33 43 40 43 42 44 41 52 47 42 43 47 48 53 54 56 57 57 55 56 52 51 51 52 47 44 41 35
33 25 29 26 33 28 31 35 32 27 32 38 36 34 34 24 24 20 35 43 47 48 47 49 53 56 59 60 53 52 51 48 47 50 50 50 43 37
20 18 20 14 12 9 6 8 12 12 15 17 19 20 21 23 25 26 24 25 25 38 36 43 50 52 53 57 54 51 54 55 54 53 54 51 41 39
14 11 8 5 2 3 7 7 9 11 15 17 19 21 21 22 23 25 26 27 28 33 31 32 34 40 49 50 41 44 51 55 56 56 55 50 44 41
9 7 4 4 4 6 6 7 10 12 14 15 17 20 22 24 25 27 28 30 30 32 33 32 35 35 37 43 50 51 47 48 53 56 55 50 45 42
8 6 4 3 4 4 6 7 9 12 14 17 19 21 23 25 26 28 29 31 33 35 35 34 36 38 37 42 41 42 45 47 48 52 53 50 48 47
9 8 7 6 6 7 7 9 11 13 16 18 20 22 24 25 27 28 31 31 35 36 35 34 32 32 36 38 40 47 45 48 43 53 53 50 49 47
8 7 6 7 8 9 11 13 14 16 18 21 25 28 30 32 33 32 32 31 32 35 38 35 34 34 34 35 40 47 51 49 48 47 53 51 50 47
5 8 10 13 16 18 20 21 22 23 24 25 27 29 32 33 36 36 34 32 34 37 35 32 34 35 35 37 39 41 43 48 47 44 50 49 51 46
9 12 14 16 17 18 19 19 20 20 20 22 24 27 30 32 33 34 33 32 33 33 33 32 33 32 31 34 34 36 38 42 44 40 50 50 50 47
10 12 14 15 15 15 16 17 17 19 20 23 26 27 30 32 33 33 32 32 31 33 34 33 32 33 33 33 32 31 31 36 40 39 44 42 40 36
10 10 10 11 11 13 14 16 18 19 21 23 27 29 31 33 33 31 31 29 27 29 32 31 32 30 31 29 29 24 26 25 32 35 39 33 30 30
9 9 9 10 11 13 15 17 19 20 22 24 28 30 32 33 33 31 29 28 27 30 32 31 29 28 25 26 26 26 24 22 21 23 24 28 31 27
9 9 9 9 11 12 15 17 20 21 23 27 30 30 33 33 31 29 28 26 28 28 27 27 25 26 22 22 24 23 24 22 22 22 19 21 17 22
Wind_Direction
246 244 242 240 249 250 251 249 234 243 244 244 246 248 248 251 259 265 262 258 255 254 253 253 257 260 257 256 260 265 272 280 284 290 293 296 299 295
244 244 244 249 249 248 246 260 255 250 245 249 245 248 250 249 254 262 263 262 257 254 254 253 254 259 259 256 260 265 272 279 282 285 290 292 296 292
242 246 245 244 254 256 254 256 252 255 245 256 250 247 241 240 236 252 262 263 260 256 256 254 255 256 259 257 260 263 269 276 279 281 286 289 294 287
246 245 246 245 247 250 242 246 248 255 247 247 240 237 233 238 253 246 252 253 264 270 270 265 258 256 256 259 260 263 267 273 278 277 279 283 287 286
251 254 254 252 250 249 251 259 250 253 254 251 246 252 240 254 251 254 244 253 258 268 271 270 267 261 258 261 260 262 267 277 272 272 272 275 278 282
247 251 255 252 254 254 250 254 252 252 251 255 250 250 254 259 259 250 244 241 247 254 267 268 269 263 261 261 261 260 263 265 266 267 269 271 273 271
242 247 253 256 257 258 257 260 260 260 256 252 255 243 242 258 246 249 243 245 246 249 254 263 263 263 262 266 268 269 269 264 265 265 269 269 269 267
246 250 249 257 260 262 258 260 256 255 255 253 251 245 259 260 259 262 255 250 248 249 248 251 261 258 259 262 265 263 270 265 262 264 262 267 272 263
251 242 250 259 258 257 260 265 265 257 259 253 251 261 261 251 259 265 266 260 257 255 248 258 263 262 261 263 263 258 261 261 261 259 257 262 264 258
243 241 257 265 255 251 256 260 265 255 257 253 255 264 261 268 267 270 274 268 271 263 261 260 263 264 265 265 268 261 257 256 260 257 254 258 259 251
245 249 262 250 256 260 259 240 241 238 240 246 254 266 261 251 242 259 257 258 262 263 262 265 260 266 266 265 263 258 255 252 254 254 252 257 251 244
208 188 212 208 221 222 203 205 229 240 244 253 250 263 271 274 273 272 271 266 275 276 272 265 267 262 258 260 261 259 255 255 253 250 249 251 235 231
142 140 138 163 214 322 283 293 294 293 294 292 290 290 289 286 283 283 286 287 280 271 276 275 277 273 262 258 263 259 254 255 250 246 243 235 226 225
99 86 56 29 353 330 321 312 301 299 301 302 303 304 305 303 298 295 290 286 287 287 285 277 284 284 279 274 265 261 257 251 247 242 235 227 221 216
88 82 68 59 39 14 7 356 340 331 330 326 326 322 320 316 311 307 301 297 292 288 285 286 288 287 281 275 270 269 265 256 247 238 229 221 213 208
83 78 67 52 36 29 17 5 358 353 349 342 336 329 323 318 315 311 306 302 298 294 291 291 293 293 289 281 269 265 263 255 256 237 229 218 211 210
63 64 61 55 46 37 25 15 7 359 354 352 349 345 340 335 329 325 320 316 309 307 307 305 303 302 297 283 264 261 255 251 245 236 221 213 211 211
55 53 50 42 35 28 24 21 17 10 4 356 349 344 337 329 324 318 316 312 307 309 305 305 305 307 301 289 268 257 253 248 240 229 212 203 205 206
50 51 46 41 35 29 21 11 4 358 351 345 343 340 337 332 328 320 316 310 305 297 297 299 296 295 283 266 265 246 242 236 226 208 207 206 205 202
50 46 39 33 25 16 9 3 358 352 349 347 343 338 336 333 326 321 313 307 301 301 299 297 292 296 284 272 260 243 229 231 213 198 197 205 207 202
35 31 27 22 15 8 0 354 350 347 346 341 342 338 336 336 330 324 316 308 303 300 294 294 296 304 291 278 257 240 221 216 216 202 192 193 187 188
25 16 9 3 359 356 350 344 342 345 346 346 342 340 341 339 333 329 321 313 307 300 298 302 307 301 284 271 249 237 214 202 195 190 191 199 188 189
18 12 5 356 355 354 347 344 345 348 349 348 344 343 345 341 336 332 325 318 310 306 306 305 309 298 286 248 245 226 202 189 174 174 181 197 199 207